EHI
0 0 0 0 0 0 0 0 0 0 0 0 1 4 6 7 4 1 0 0 0 0 0 0 0 0 0 0 0 0 0 0 0 0 0 0 0 0 0 0 0 0 0 0
0 0 0 0 0 0 0 0 0 0 0 0 1 3 4 4 2 0 0 0 0 0 0 0 0 0 0 0 0 0 0 0 0 0 0 0 0 0 0 0 0 0 0 0
0 0 0 0 0 0 0 0 0 0 0 0 1 1 2 2 1 0 0 0 0 0 0 0 0 0 0 0 0 0 0 0 0 0 0 0 0 0 0 0 0 0 0 0
0 0 0 0 0 0 0 0 0 0 0 0 1 1 1 1 1 0 0 0 0 0 0 0 0 0 0 0 0 0 0 0 0 0 0 0 0 0 0 0 0 0 0 0
0 0 0 0 0 0 0 0 0 0 0 0 2 2 2 1 0 0 0 0 0 0 0 0 0 0 0 0 0 0 0 0 0 0 0 0 0 0 0 0 0 0 0 0
0 0 0 0 0 0 0 0 0 0 0 0 1 2 1 0 0 0 0 0 0 0 0 0 0 0 0 0 0 0 0 0 0 0 0 0 0 0 0 0 0 0 0 0
0 0 0 0 0 0 0 0 0 0 0 0 1 1 0 0 0 0 0 0 0 0 0 0 0 0 0 0 0 0 0 0 0 0 0 0 0 0 0 0 0 0 0 0
0 0 0 0 0 0 0 0 0 0 0 0 1 1 0 0 0 0 0 0 0 0 0 0 0 0 0 0 0 0 0 0 0 0 0 0 0 0 0 0 0 0 0 0
0 0 0 0 0 0 0 0 0 0 0 0 0 0 0 0 0 0 0 0 0 0 0 0 0 0 0 0 0 0 0 0 0 0 0 0 0 0 0 0 0 0 0 0
0 0 0 0 0 0 0 0 0 0 0 0 0 0 0 0 0 0 0 0 0 0 0 0 0 0 0 0 0 0 0 0 0 0 0 0 0 0 0 0 0 0 0 0
0 0 0 0 0 0 0 0 0 0 0 0 0 0 0 0 0 0 0 0 0 0 0 0 0 0 0 0 0 0 0 0 0 0 0 0 0 0 0 0 0 0 0 0
0 0 0 0 0 0 0 0 0 0 0 0 0 0 0 0 0 0 0 0 0 0 0 0 0 0 0 0 0 0 0 0 0 0 0 0 0 0 0 0 0 0 0 0
0 0 0 0 0 0 0 0 0 0 0 0 0 0 0 0 0 0 0 0 0 0 0 0 0 0 0 0 0 0 0 0 0 0 0 0 0 0 0 0 0 0 0 0
0 0 0 0 0 0 0 0 0 0 0 0 0 0 0 0 0 0 0 0 0 0 0 0 0 0 0 0 0 0 0 0 0 0 0 0 0 0 0 0 0 0 0 0
0 0 0 0 0 0 0 0 0 0 0 0 0 0 0 0 0 0 0 0 0 0 0 0 0 0 0 0 0 0 0 0 0 0 0 0 0 0 0 0 0 0 0 0
0 0 0 0 0 0 0 0 0 0 0 0 0 0 0 0 0 0 0 0 0 0 0 0 0 0 0 0 0 0 0 0 0 0 0 0 0 0 0 0 0 0 0 0
0 0 0 0 0 0 0 0 0 0 0 0 0 0 0 0 0 0 0 0 0 0 0 0 0 0 0 0 0 0 0 0 0 0 0 0 0 0 0 0 0 0 0 0
0 0 0 0 0 0 0 0 0 0 0 0 0 0 0 0 0 0 0 0 0 0 0 0 0 0 0 0 0 0 0 0 0 0 0 0 0 0 0 0 0 0 0 0
0 0 0 0 0 0 0 0 0 0 0 0 0 0 0 0 0 0 0 0 0 0 0 0 0 0 0 0 0 0 0 0 0 0 0 0 0 0 0 0 0 0 0 0
0 0 0 0 0 0 0 0 0 0 0 0 0 0 0 0 0 0 0 0 0 0 0 0 0 0 0 0 0 0 0 0 0 0 0 0 0 0 0 0 0 0 0 0
0 0 0 0 0 0 0 0 0 0 0 0 0 0 0 0 0 0 0 0 0 0 0 0 0 0 0 0 0 0 0 0 0 0 0 0 0 0 0 0 0 0 0 0
0 0 0 0 0 0 0 0 0 0 0 0 0 0 0 0 0 0 0 0 0 0 0 0 0 0 0 0 0 0 0 0 0 0 0 0 0 0 0 0 0 0 0 0
0 0 0 0 0 0 0 0 0 0 0 0 0 0 0 0 0 0 0 0 0 0 0 0 0 0 0 0 0 0 0 0 0 0 0 0 0 0 0 0 0 0 0 0
0 0 0 0 0 0 0 0 0 0 0 0 0 0 0 0 0 0 0 0 0 0 0 0 0 0 0 0 0 0 0 0 0 0 0 0 0 0 0 0 0 0 0 0
0 0 0 0 0 0 0 0 0 0 0 0 0 0 0 0 0 0 0 0 0 0 0 0 0 0 0 0 0 0 0 0 0 0 0 0 0 0 0 0 0 0 0 0
0 0 0 0 0 0 0 0 0 0 0 0 0 0 0 0 0 0 0 0 0 0 0 0 0 0 0 0 0 0 0 0 0 0 0 0 0 0 0 0 0 0 0 0
0 0 0 0 0 0 0 0 0 0 0 0 0 0 0 0 0 0 0 0 0 0 0 0 0 0 0 0 0 0 0 0 0 0 0 0 0 0 0 0 0 0 0 0
Wind_Speed
6 5 6 8 8 8 9 10 9 8 5 1 5 8 11 13 13 13 11 10 9 8 7 7 6 6 6 6 5 5 6 7 7 7 7 7 7 7 7 7 8 8 9 9
7 6 7 9 8 8 8 8 9 7 2 5 7 9 10 12 13 13 12 11 10 9 8 7 7 7 6 6 5 5 6 7 7 7 7 7 7 7 7 8 8 9 9 10
6 5 8 6 3 4 4 4 5 5 3 7 8 9 11 12 12 12 12 12 11 9 8 7 7 6 6 6 6 6 6 7 7 7 7 7 7 8 8 8 9 9 9 10
6 6 6 3 3 4 4 2 3 3 5 6 8 8 8 10 12 12 12 12 11 10 9 8 7 6 6 6 5 6 6 6 7 7 7 7 7 8 8 7 7 8 8 9
5 6 3 3 3 4 4 1 4 5 7 8 11 10 7 7 10 11 12 11 10 10 9 8 7 7 6 6 6 6 6 6 6 6 7 7 7 7 7 7 7 7 8 9
5 5 1 5 6 5 6 3 5 5 8 9 10 6 7 9 11 12 12 11 10 10 9 8 7 7 6 6 6 6 6 6 6 6 7 7 7 7 6 6 6 7 8 8
6 5 1 8 7 5 3 5 3 3 7 8 4 4 12 14 12 12 12 12 11 10 9 8 8 7 7 7 7 6 6 6 6 6 6 6 6 5 5 5 6 7 8 7
4 3 2 8 6 6 6 4 2 4 7 6 8 13 15 14 14 13 13 12 11 10 9 8 8 7 8 7 7 7 7 7 6 5 5 6 5 5 5 5 6 6 6 6
4 3 5 4 4 4 3 2 3 6 8 9 12 14 15 14 14 13 12 11 10 10 10 8 7 7 8 8 7 7 7 7 6 6 5 5 4 4 4 3 3 4 4 5
4 1 3 4 4 3 3 3 5 7 9 11 13 14 14 14 13 12 11 11 10 10 10 9 8 8 8 7 6 7 7 6 6 5 5 5 3 3 4 3 4 4 4 4
4 2 1 3 4 4 4 6 8 8 9 11 14 14 14 13 13 12 11 10 9 9 10 10 9 8 8 7 6 7 7 6 5 5 5 5 5 6 5 6 6 4 4 3
3 3 3 3 3 2 4 6 8 9 10 11 13 14 14 13 12 12 11 10 10 10 10 10 9 8 7 6 6 6 6 5 5 5 4 5 6 6 8 7 5 6 7 7
4 4 3 1 0 2 5 7 8 9 11 12 12 13 13 13 12 12 12 12 11 11 11 10 10 9 7 6 6 6 5 4 4 4 5 4 4 5 6 5 3 3 3 3
4 4 2 2 3 4 7 8 8 9 11 12 12 13 13 13 13 13 13 12 12 11 11 10 10 9 8 7 6 6 6 5 3 4 4 4 4 3 3 4 5 6 5 3
3 4 3 3 5 7 8 10 10 11 11 12 13 13 13 14 13 13 12 12 11 11 11 10 10 9 8 7 6 5 5 4 3 4 3 3 3 3 3 3 3 4 5 7
3 2 4 6 8 9 10 11 11 12 13 13 13 13 13 13 13 13 12 12 12 11 10 10 9 9 8 7 6 5 4 4 1 3 4 3 3 2 3 2 2 2 2 3
6 6 7 8 9 10 11 11 11 12 13 13 14 14 14 14 13 13 12 11 10 10 10 9 9 9 8 7 6 5 6 7 6 4 3 2 2 2 2 2 2 2 2 4
7 6 7 8 9 10 11 11 12 13 13 14 15 14 15 14 14 13 12 12 11 10 10 9 9 9 8 7 5 4 5 5 4 3 2 2 1 1 1 2 2 2 3 5
6 6 7 8 9 10 11 11 12 13 13 14 15 15 14 13 13 13 13 12 12 11 10 10 7 8 8 7 4 5 4 4 3 3 2 3 3 2 2 1 1 1 1 2
5 6 7 8 9 10 11 11 12 13 13 14 15 15 14 14 13 13 13 11 9 9 10 10 10 9 8 8 7 6 5 4 4 3 3 3 3 2 2 2 2 1 2 2
5 6 8 8 9 10 11 12 13 13 14 15 15 15 14 14 14 13 12 11 10 10 10 10 9 8 8 7 8 6 5 4 4 3 3 3 2 2 2 2 2 2 3 3
4 6 7 8 9 10 11 11 12 14 14 14 15 15 14 14 14 13 12 9 11 10 9 10 10 7 6 6 8 7 6 5 4 4 3 3 3 3 3 3 3 3 3 3
3 5 6 8 9 10 11 11 13 13 14 14 15 15 14 13 12 11 11 10 10 12 10 9 8 10 7 8 7 6 6 5 5 4 4 3 3 3 3 4 4 4 4 4
3 4 5 7 9 10 12 12 12 11 13 13 13 14 13 11 10 10 9 11 10 12 10 8 12 11 10 9 8 7 6 6 6 5 5 4 4 4 4 5 5 5 5 6
3 4 5 7 8 9 10 11 12 12 13 11 13 14 12 10 10 10 10 13 14 13 11 11 13 12 11 10 9 8 7 6 5 5 5 5 6 5 5 5 6 6 6 6
3 4 4 5 5 6 8 9 10 10 11 10 11 11 11 10 11 10 10 13 16 13 12 11 13 13 12 11 10 10 8 7 7 8 8 7 8 7 6 6 8 7 7 7
4 4 4 5 5 7 8 9 10 10 11 11 11 11 11 11 11 11 13 12 13 13 12 11 12 13 13 12 11 10 9 8 8 8 8 8 8 8 8 9 8 7 8 8
Wind_Direction
289 293 278 274 272 264 263 275 282 296 306 24 159 159 151 148 146 147 148 146 143 140 132 127 118 109 100 93 85 86 88 85 80 78 75 70 66 64 63 63 66 66 67 65
262 260 270 269 270 269 266 271 278 285 322 78 122 136 144 152 156 157 155 150 147 144 138 135 125 115 106 97 91 91 90 87 83 79 76 74 75 74 69 68 67 66 66 68
266 269 266 251 286 286 284 296 296 305 78 124 137 148 154 159 163 159 154 151 150 146 141 134 124 118 112 109 105 99 94 91 88 84 80 76 76 76 73 70 72 70 68 69
272 267 251 65 32 328 309 358 10 60 107 130 131 129 137 153 157 154 151 150 145 140 137 130 124 121 120 117 113 107 100 96 92 90 91 86 79 76 73 70 70 71 73 74
265 261 240 122 40 346 310 76 55 99 116 116 120 119 122 141 149 147 146 143 139 139 138 137 137 136 126 115 108 100 92 89 90 91 93 89 84 80 80 80 76 75 73 76
261 271 283 59 18 338 283 145 73 110 138 144 162 166 142 145 142 138 136 136 137 139 141 142 139 136 127 118 108 99 96 92 89 87 89 87 84 83 84 84 85 84 77 73
259 262 65 29 348 303 291 38 53 129 151 165 181 76 126 139 138 136 136 138 141 141 140 136 137 136 126 116 105 102 104 102 93 91 94 91 90 92 96 93 89 88 89 83
259 260 66 20 360 13 14 10 89 130 142 137 109 113 128 136 136 138 140 143 144 139 133 135 140 136 125 114 111 111 111 110 106 103 101 101 99 96 95 106 114 108 103 99
321 6 38 18 14 17 354 49 108 130 135 131 130 133 135 135 138 141 142 142 143 139 135 136 139 135 123 117 120 118 115 111 106 101 95 101 109 114 117 116 108 107 108 104
283 2 20 37 41 41 49 87 118 132 137 139 137 137 137 138 141 141 141 143 143 141 139 137 134 126 121 123 124 123 117 115 114 109 108 102 96 94 92 86 91 99 98 97
268 309 354 57 49 55 78 104 117 126 137 139 139 140 141 143 145 144 144 147 147 143 139 136 132 125 126 130 132 124 118 117 116 112 106 104 83 49 45 57 33 21 53 74
323 4 339 19 43 81 118 123 127 133 134 138 142 142 144 144 145 145 147 148 147 145 142 137 134 131 134 137 135 133 130 125 120 120 120 122 121 113 60 55 63 47 26 16
294 322 337 344 144 147 139 132 136 139 139 142 144 144 145 145 146 148 151 152 150 147 144 143 144 142 141 142 134 125 121 120 119 117 120 119 122 126 128 119 101 85 70 44
274 267 240 198 163 149 139 136 137 136 139 142 144 146 146 148 149 152 154 153 151 150 149 150 150 146 147 143 136 134 131 125 132 121 112 114 118 123 126 136 144 142 147 160
268 260 233 173 155 147 145 145 144 142 143 144 147 149 152 153 153 153 152 152 152 152 151 151 149 147 152 149 146 146 143 132 130 121 134 129 132 133 120 115 116 124 137 150
260 230 183 172 163 158 159 158 154 150 151 151 152 154 156 154 152 152 154 155 158 157 154 152 151 150 154 153 154 152 130 89 167 159 151 148 150 142 129 132 133 124 128 129
229 209 190 177 169 167 168 166 160 155 155 156 156 156 157 155 154 155 157 158 159 156 156 156 154 155 160 165 180 170 151 147 189 203 158 144 138 133 134 153 144 137 110 81
229 219 201 186 175 169 168 166 163 159 159 157 156 159 160 160 160 159 159 158 160 159 162 164 162 166 168 172 182 175 164 160 170 162 153 153 133 177 175 163 155 156 145 149
211 197 189 183 175 170 168 167 165 162 160 160 161 163 165 165 163 161 161 163 166 166 167 163 161 183 175 167 186 191 185 172 167 164 167 154 210 215 200 196 190 193 203 184
183 177 174 173 170 169 167 165 163 162 164 165 165 166 168 169 167 166 168 173 177 167 161 164 176 187 180 176 219 209 187 191 186 172 184 192 197 199 202 216 223 218 237 250
171 169 170 168 167 167 166 165 165 165 167 170 171 171 171 171 172 171 176 178 175 169 165 166 190 187 186 174 207 219 197 197 198 194 200 202 204 221 224 224 231 238 244 250
170 169 169 166 166 166 166 167 169 169 169 174 175 174 172 174 177 179 186 183 168 167 181 183 190 179 174 194 206 208 200 201 210 212 212 226 233 239 240 243 243 244 248 253
175 169 170 172 172 168 168 171 173 174 175 178 178 178 179 179 180 182 182 182 175 173 196 189 161 150 173 216 216 210 208 212 221 226 224 227 238 244 248 248 252 255 257 259
174 171 172 172 172 173 176 177 175 178 181 182 182 182 182 182 186 192 183 171 171 170 197 164 151 164 201 222 218 216 214 217 225 233 235 233 234 239 245 249 252 253 253 256
179 176 172 174 179 182 179 176 176 180 184 185 184 184 188 191 188 187 183 173 169 180 195 169 168 182 210 222 221 222 223 226 237 249 247 250 252 247 245 249 253 257 258 258
187 193 184 192 191 186 181 180 182 183 185 185 185 185 189 191 192 186 186 184 181 192 205 188 183 195 217 224 225 227 231 225 224 234 244 251 254 257 259 261 261 261 263 263
195 192 190 193 188 192 190 189 189 189 189 189 187 185 188 189 190 190 191 190 185 192 205 205 200 201 212 220 223 224 228 233 236 239 242 245 250 252 253 255 259 261 262 263